Tracking 19905 objects as of 17-Oct-2019
HD Live streaming from Space Station
objects crossing your sky now

TIROS 9

Track TIROS 9 now!
10-day predictions
TIROS 9 is classified as:


NORAD ID: 978
Int'l Code: 1965-004A
Perigee: 712.2 km
Apogee: 2,567.0 km
Inclination: 96.4 °
Period: 118.9 minutes
Semi major axis: 8010 km
RCS: 0.8367 m2 (medium)
Launch date: January 22, 1965
Source: United States (US)
Launch site: AIR FORCE EASTERN TEST RANGE (AFETR)
aabbcc
Your satellite tracking list
Your tracking list is empty




NASA's NSSDC Master Catalog

Two Line Element Set (TLE):
1   978U 65004A   19290.09580159  .00000110  00000-0  16649-3 0  9998
2   978  96.3911 147.6184 1157701 258.8423  88.0595 12.10883563417273
Source of the keplerian elements: AFSPC